This demonstration page uses our WeatherBlox Daily Observations layout. Learn more.

Left ArrowRight Arrow

39.51506, -84.39828

Hourly Observations for April 29, 2015

Temp ( °F °C ) Dew Point ( °F °C ) Humidity (%) Winds ( mph kmh ) Pressure ( in mb ) Visibility ( mi km ) Precip ( " mm )
12:15 am 00:15 Clear 47 8.3 42 5.3 82 82 N 3 6 29.97 1015 10 16.0934 N/A
12:35 am 00:35 Clear 47 8.2 42 5.5 83 83 N N/A 29.97 1015 10 16.0934 N/A
12:55 am 00:55 Clear 47 8.2 41 5.2 82 82 NE 3 6 29.97 1015 10 16.0934 N/A
1:15 am 01:15 Clear 47 8.2 42 5.3 82 82 N N/A 29.97 1015 10 16.0934 N/A
1:35 am 01:35 Clear 44 6.5 39 3.7 83 83 N 3 6 29.94 1014 10 16.0934 N/A
1:55 am 01:55 Clear 43 6.1 38 3.4 83 83 N 3 6 29.94 1014 10 16.0934 N/A
2:15 am 02:15 Clear 42 5.7 38 3.3 85 85 NE 3 6 29.94 1014 10 16.0934 N/A
2:35 am 02:35 Clear 42 5.7 38 3.4 85 85 N N/A 29.94 1014 10 16.0934 N/A
2:55 am 02:55 Clear 42 5.5 38 3.1 85 85 N 5 7 29.94 1014 10 16.0934 N/A
3:15 am 03:15 Clear 42 5.5 37 3 84 84 N N/A 29.91 1013 10 16.0934 N/A
3:35 am 03:35 Clear 41 4.9 37 2.7 86 86 N N/A 29.91 1013 10 16.0934 N/A
3:55 am 03:55 Clear 41 5 37 2.9 86 86 NNE 3 6 29.91 1013 10 16.0934 N/A
4:15 am 04:15 Clear 41 4.8 37 2.7 86 86 N N/A 29.91 1013 10 16.0934 N/A
4:35 am 04:35 Clear 39 4.1 36 2.1 87 87 N 3 6 29.91 1013 10 16.0934 N/A
4:55 am 04:55 Clear 39 4 36 2 87 87 NNE 3 6 29.91 1013 10 16.0934 N/A
5:15 am 05:15 Clear 39 4 36 2 87 87 N 3 6 29.91 1013 10 16.0934 N/A
5:35 am 05:35 Clear 39 4 36 2.1 88 88 N N/A 29.91 1013 10 16.0934 N/A
5:55 am 05:55 Clear 39 4 36 2.1 88 88 N N/A 29.91 1013 10 16.0934 N/A
6:15 am 06:15 Clear 39 4 36 2.1 88 88 N 3 6 29.91 1013 10 16.0934 N/A
6:35 am 06:35 Clear 39 4 36 2.2 88 88 N N/A 29.91 1013 10 16.0934 N/A
6:55 am 06:55 Sunny 39 4 36 2.2 88 88 NNE 3 6 29.91 1013 7 11.26538 N/A
7:15 am 07:15 Sunny 39 4 36 2.2 88 88 NE 3 6 29.91 1013 7 11.26538 N/A
7:35 am 07:35 Sunny 41 4.8 38 3.1 89 89 N N/A 29.91 1013 7 11.26538 N/A
7:55 am 07:55 Sunny 43 6.1 40 4.2 88 88 N N/A 29.91 1013 10 16.0934 N/A
8:15 am 08:15 Sunny 47 8.1 43 5.9 86 86 N N/A 29.91 1013 10 16.0934 N/A
8:35 am 08:35 Sunny 49 9.6 44 6.7 82 82 N N/A 29.91 1013 10 16.0934 N/A
8:55 am 08:55 Sunny 49 9.6 42 5.6 76 76 N N/A 29.91 1013 10 16.0934 N/A
9:15 am 09:15 Sunny 54 12.4 45 7.3 71 71 N N/A 29.91 1013 10 16.0934 N/A
9:35 am 09:35 Sunny 55 12.5 40 4.2 57 57 N N/A 29.91 1013 10 16.0934 N/A
9:55 am 09:55 Sunny 57 13.8 42 5.5 58 58 N N/A 29.91 1013 10 16.0934 N/A
10:15 am 10:15 Sunny 57 13.8 39 4 52 52 NE 3 6 29.91 1013 10 16.0934 N/A
10:35 am 10:35 Sunny 60 15.3 39 3.9 47 47 NE 3 6 29.88 1012 10 16.0934 N/A
10:55 am 10:55 Sunny 61 16 39 4.1 45 45 E 5 7 29.88 1012 10 16.0934 N/A
11:15 am 11:15 Sunny 62 16.6 38 3.6 42 42 E 3 6 29.88 1012 10 16.0934 N/A
11:35 am 11:35 Sunny 62 16.6 37 2.6 39 39 NE 3 6 29.88 1012 10 16.0934 N/A
11:55 am 11:55 Partly Cloudy 64 17.5 37 2.8 38 38 ENE 5 7 29.88 1012 10 16.0934 N/A
12:15 pm 12:15 Partly Cloudy 64 17.6 36 2.3 36 36 NE 5 7 29.85 1011 10 16.0934 N/A
12:35 pm 12:35 Partly Cloudy 64 18 38 3.1 37 37 N N/A 29.85 1011 10 16.0934 N/A
12:55 pm 12:55 Sunny 64 18 36 2.1 35 35 N N/A 29.85 1011 10 16.0934 N/A
1:15 pm 13:15 Sunny 67 19.5 39 3.7 35 35 E 5 7 29.85 1011 10 16.0934 N/A
1:35 pm 13:35 Partly Cloudy 69 20.3 39 4 34 34 N 5 7 29.83 1010 10 16.0934 N/A
1:55 pm 13:55 Partly Cloudy 67 19.5 36 2.4 32 32 N N/A 29.83 1010 10 16.0934 N/A
2:15 pm 14:15 Partly Cloudy 69 20.8 39 3.7 33 33 N 3 6 29.83 1010 10 16.0934 N/A
2:35 pm 14:35 Partly Cloudy 68 20 36 2.3 31 31 N 5 7 29.83 1010 10 16.0934 N/A
2:55 pm 14:55 Partly Cloudy 69 20.8 37 2.8 31 31 NNE 6 9 29.83 1010 10 16.0934 N/A
3:15 pm 15:15 Mostly Cloudy 67 19.6 37 2.6 32 32 N 7 11 29.83 1010 10 16.0934 N/A
3:35 pm 15:35 Mostly Cloudy 69 20.8 36 2.3 30 30 N 9 15 29.83 1010 10 16.0934 N/A
3:55 pm 15:55 Mostly Cloudy 69 20.8 37 2.6 30 30 E 6 9 29.8 1009 10 16.0934 N/A
4:15 pm 16:15 Mostly Cloudy 67 19.5 35 1.6 30 30 N N/A 29.8 1009 10 16.0934 N/A
4:35 pm 16:35 Cloudy 69 20.8 36 2.4 30 30 NNW 8 13 29.8 1009 10 16.0934 N/A
4:55 pm 16:55 Cloudy 69 20.8 34 0.9 27 27 NNE 3 6 29.8 1009 10 16.0934 N/A
5:15 pm 17:15 Mostly Cloudy 69 20.8 37 2.7 30 30 N 8 13 29.8 1009 10 16.0934 N/A
5:35 pm 17:35 Mostly Cloudy 67 19.5 35 1.9 31 31 N 9 15 29.8 1009 10 16.0934 N/A
5:55 pm 17:55 Cloudy 67 19.5 36 2 31 31 N 7 11 29.8 1009 10 16.0934 N/A
6:15 pm 18:15 Cloudy 67 19.5 36 2.4 32 32 NNE 6 9 29.8 1009 10 16.0934 N/A
6:35 pm 18:35 Cloudy 67 19.5 36 2.2 32 32 N 6 9 29.8 1009 10 16.0934 N/A
6:55 pm 18:55 Cloudy 68 20.2 38 3.1 32 32 N 7 11 29.8 1009 10 16.0934 N/A
7:15 pm 19:15 Cloudy 64 18 35 1.6 33 33 N 8 13 29.8 1009 10 16.0934 N/A
7:35 pm 19:35 Cloudy 64 18 35 1.9 34 34 NNW 7 11 29.8 1009 10 16.0934 N/A
7:55 pm 19:55 Cloudy 64 17.8 36 2.1 35 35 N 7 11 29.8 1009 10 16.0934 N/A
8:15 pm 20:15 Cloudy 63 17.2 36 2.1 36 36 N 6 9 29.8 1009 10 16.0934 N/A
8:35 pm 20:35 Cloudy 62 16.6 37 2.5 39 39 NNW 7 11 29.8 1009 10 16.0934 N/A
8:55 pm 20:55 Cloudy 62 16.6 37 3 40 40 NNW 6 9 29.8 1009 10 16.0934 N/A
9:35 pm 21:35 Cloudy 61 16 39 3.7 44 44 NW 3 6 29.8 1009 10 16.0934 N/A
9:55 pm 21:55 Cloudy 60 15.3 40 4.6 49 49 WNW 3 6 29.83 1010 10 16.0934 N/A
10:15 pm 22:15 Cloudy 60 15.3 42 5.3 52 52 W 3 6 29.83 1010 10 16.0934 N/A
10:35 pm 22:35 Cloudy 60 15.3 42 5.5 52 52 N N/A 29.8 1009 10 16.0934 N/A
10:55 pm 22:55 Cloudy 60 15.3 42 5.3 52 52 N N/A 29.8 1009 10 16.0934 N/A
11:15 pm 23:15 Cloudy 60 15.3 41 5 50 50 N N/A 29.8 1009 10 16.0934 N/A
11:35 pm 23:35 Cloudy 60 15.3 41 5.1 51 51 N N/A 29.8 1009 10 16.0934 N/A
11:55 pm 23:55 Cloudy 60 15.3 41 4.9 50 50 N N/A 29.8 1009 10 16.0934 N/A

Powered by AerisWeather